Location: Grange Verzio
(44.5000°N, 6.9833°E)
Time: 00:36:11
(UTC+00:00)

Lacrosse 5 - Pass Details

Date: 01 February 2023
Orbit: 714 x 724 km, 57.0° (Epoch: 09 March)

Event Time Altitude Azimuth Distance (km) Brightness Sun altitude
Rises 20:12:57 0° 270° (W) 3,135 6.1 -37.9°
Reaches altitude 10° 20:15:40 10° 282° (WNW) 2,216 5.1 -38.3°
Enters shadow 20:17:34 19° 299° (WNW) 1,693 4.3 -38.6°
